This is the latest recevied weather packets stored in our database for station/object WA4ORT. If no packets are shown the sender has not sent any weather packets the latest 10 day(s).
| Time | Temp. | Humidity | Pressure | Rain* | Wind** | Luminosity | Snow |
|---|---|---|---|---|---|---|---|
| 1776910574 | 16.67° C | - | - | 0 mm | 0 m/s | - | - |
| 1776909676 | 16.67° C | - | - | 0 mm | 0.45 m/s, 80° | - | - |
| 1776908781 | 16.67° C | - | - | 0 mm | 0.45 m/s, 83° | - | - |
| 1776907886 | 17.22° C | - | - | 0 mm | 0 m/s | - | - |
| 1776906988 | 16.11° C | - | - | 0 mm | 0 m/s | - | - |
| 1776906093 | 15.56° C | - | - | 0 mm | 0 m/s | - | - |
| 1776905198 | 16.11° C | - | - | 0 mm | 0 m/s | - | - |
| 1776904300 | 17.22° C | - | - | 0 mm | 0.45 m/s, 142° | - | - |
| 1776903405 | 18.89° C | - | - | 0 mm | 0 m/s | - | - |
| 1776902510 | 19.44° C | - | - | 0 mm | 0.45 m/s, 163° | - | - |
| 1776901611 | 18.89° C | - | - | 0 mm | 0 m/s | - | - |
| 1776900717 | 20° C | - | - | 0 mm | 0.45 m/s, 145° | - | - |
| 1776899822 | 20.56° C | - | - | 0 mm | 0 m/s | - | - |
| 1776898923 | 21.11° C | - | - | 0 mm | 0.45 m/s, 160° | - | - |
| 1776898029 | 21.11° C | - | - | 0 mm | 1.34 m/s, 155° | - | - |
| 1776897134 | 21.67° C | - | - | 0 mm | 0.89 m/s, 210° | - | - |
| 1776896236 | 22.22° C | - | - | 0 mm | 0.89 m/s, 191° | - | - |
| 1776895341 | 22.22° C | - | - | 0 mm | 1.34 m/s, 190° | - | - |
| 1776894446 | 22.78° C | - | - | 0 mm | 0.45 m/s, 167° | - | - |
| 1776893548 | 22.22° C | - | - | 0 mm | 0.45 m/s, 152° | - | - |
| 1776892653 | 21.67° C | - | - | 0 mm | 0.45 m/s, 179° | - | - |
| 1776891758 | 22.78° C | - | - | 0 mm | 0.45 m/s, 181° | - | - |
| 1776890860 | 22.22° C | - | - | 0 mm | 1.79 m/s, 302° | - | - |
| 1776889965 | 22.78° C | - | - | 0 mm | 1.34 m/s, 103° | - | - |
| 1776889070 | 22.22° C | - | - | 0 mm | 0.45 m/s, 104° | - | - |
* Rain latest hour (hover to see other rain measurements)
** Current wind speed in m/s (hover to see current wind gust speed)